| time (UTC) | temp F | wind direction | speed MPH | gust MPH | rain 1hr in | rain 24hr in | rain mn in | humidity % | barometer mb |
| 20260508220057 | 71 | 179 | 5.0 | 11.0 | 0.00 | 0.00 | 0.00 | 38 | 1004.2 |
| 20260508215557 | 71 | 210 | 4.0 | 10.0 | 0.00 | 0.00 | 0.00 | 37 | 1004.2 |
| 20260508215057 | 71 | 208 | 4.0 | 10.0 | 0.00 | 0.00 | 0.00 | 38 | 1004.2 |
| 20260508214557 | 71 | 208 | 2.0 | 14.0 | 0.00 | 0.00 | 0.00 | 38 | 1004.1 |
| 20260508214056 | 71 | 202 | 6.0 | 15.0 | 0.00 | 0.00 | 0.00 | 37 | 1004.2 |
| 20260508213556 | 71 | 262 | 6.0 | 15.0 | 0.00 | 0.00 | 0.00 | 37 | 1004.2 |
| 20260508213055 | 71 | 240 | 7.0 | 14.0 | 0.00 | 0.00 | 0.00 | 37 | 1004.2 |
| 20260508212555 | 71 | 228 | 7.0 | 14.0 | 0.00 | 0.00 | 0.00 | 37 | 1004.4 |
| 20260508212056 | 72 | 282 | 6.0 | 12.0 | 0.00 | 0.00 | 0.00 | 37 | 1004.3 |
| 20260508211554 | 72 | 224 | 3.0 | 12.0 | 0.00 | 0.00 | 0.00 | 37 | 1004.4 |
| 20260508211055 | 72 | 274 | 6.0 | 12.0 | 0.00 | 0.00 | 0.00 | 35 | 1004.5 |
| 20260508210556 | 72 | 216 | 2.0 | 15.0 | 0.00 | 0.00 | 0.00 | 38 | 1004.5 |
| 20260508210052 | 72 | 233 | 5.0 | 17.0 | 0.00 | 0.00 | 0.00 | 37 | 1004.4 |
| 20260508205554 | 72 | 255 | 7.0 | 14.0 | 0.00 | 0.00 | 0.00 | 36 | 1004.4 |
| 20260508205051 | 71 | 217 | 2.0 | 11.0 | 0.00 | 0.00 | 0.00 | 38 | 1004.4 |
| 20260508204551 | 71 | 225 | 5.0 | 17.0 | 0.00 | 0.00 | 0.00 | 37 | 1004.6 |
| 20260508204050 | 71 | 224 | 4.0 | 8.0 | 0.00 | 0.00 | 0.00 | 37 | 1004.5 |
| 20260508203550 | 71 | 206 | 2.0 | 7.0 | 0.00 | 0.00 | 0.00 | 39 | 1004.6 |
| 20260508203058 | 70 | 223 | 1.0 | 8.0 | 0.00 | 0.00 | 0.00 | 38 | 1004.8 |
| 20260508202550 | 70 | 236 | 2.0 | 10.0 | 0.00 | 0.00 | 0.00 | 37 | 1004.9 |
| 20260508202050 | 71 | 219 | 2.0 | 6.0 | 0.00 | 0.00 | 0.00 | 37 | 1005.0 |
| 20260508201558 | 71 | 300 | 2.0 | 13.0 | 0.00 | 0.00 | 0.00 | 38 | 1005.0 |
| 20260508201048 | 71 | 235 | 7.0 | 13.0 | 0.00 | 0.00 | 0.00 | 38 | 1005.0 |
| 20260508200548 | 71 | 214 | 4.0 | 13.0 | 0.00 | 0.00 | 0.00 | 37 | 1005.1 |
| 20260508200148 | 71 | 135 | 6.0 | 13.0 | 0.00 | 0.00 | 0.00 | 37 | 1005.0 |
| 20260508195545 | 71 | 217 | 2.0 | 13.0 | 0.00 | 0.00 | 0.00 | 40 | 1005.1 |
| 20260508195050 | 70 | 230 | 6.0 | 14.0 | 0.00 | 0.00 | 0.00 | 37 | 1005.3 |
| 20260508194546 | 70 | 170 | 7.0 | 16.0 | 0.00 | 0.00 | 0.00 | 38 | 1005.4 |
| 20260508194045 | 70 | 222 | 9.0 | 16.0 | 0.00 | 0.00 | 0.00 | 38 | 1005.3 |
| 20260508193545 | 70 | 210 | 5.0 | 12.0 | 0.00 | 0.00 | 0.00 | 40 | 1005.4 |
| 20260508193046 | 69 | 202 | 6.0 | 14.0 | 0.00 | 0.00 | 0.00 | 38 | 1005.4 |
| 20260508192545 | 69 | 267 | 7.0 | 20.0 | 0.00 | 0.00 | 0.00 | 38 | 1005.6 |
| 20260508192045 | 69 | 229 | 13.0 | 20.0 | 0.00 | 0.00 | 0.00 | 38 | 1005.7 |
| 20260508191544 | 69 | 264 | 6.0 | 13.0 | 0.00 | 0.00 | 0.00 | 39 | 1005.7 |
| 20260508191044 | 69 | 233 | 3.0 | 13.0 | 0.00 | 0.00 | 0.00 | 39 | 1005.8 |
| 20260508190544 | 69 | 300 | 5.0 | 10.0 | 0.00 | 0.00 | 0.00 | 39 | 1005.9 |
| 20260508190044 | 69 | 233 | 4.0 | 11.0 | 0.00 | 0.00 | 0.00 | 38 | 1006.0 |
| 20260508185548 | 69 | 229 | 5.0 | 11.0 | 0.00 | 0.02 | 0.00 | 39 | 1006.1 |
| 20260508185043 | 69 | 238 | 3.0 | 10.0 | 0.00 | 0.02 | 0.00 | 39 | 1006.1 |
| 20260508184543 | 70 | 224 | 4.0 | 10.0 | 0.00 | 0.02 | 0.00 | 38 | 1006.3 |
| 20260508184045 | 69 | 299 | 4.0 | 12.0 | 0.00 | 0.02 | 0.00 | 41 | 1006.3 |
| 20260508183541 | 69 | 179 | 5.0 | 12.0 | 0.00 | 0.02 | 0.00 | 38 | 1006.3 |
| 20260508183043 | 70 | 217 | 5.0 | 12.0 | 0.00 | 0.02 | 0.00 | 39 | 1006.4 |
| 20260508182542 | 70 | 303 | 3.0 | 8.0 | 0.00 | 0.02 | 0.00 | 39 | 1006.5 |
| 20260508182040 | 69 | 224 | 3.0 | 11.0 | 0.00 | 0.02 | 0.00 | 41 | 1006.4 |
| 20260508181553 | 69 | 203 | 3.0 | 18.0 | 0.00 | 0.02 | 0.00 | 42 | 1006.5 |
| 20260508181039 | 68 | 239 | 8.0 | 18.0 | 0.00 | 0.02 | 0.00 | 39 | 1006.7 |
| 20260508180539 | 68 | 207 | 12.0 | 17.0 | 0.00 | 0.02 | 0.00 | 39 | 1006.8 |
| 20260508180039 | 68 | 231 | 5.0 | 13.0 | 0.00 | 0.02 | 0.00 | 40 | 1006.8 |
| 20260508175539 | 69 | 252 | 6.0 | 12.0 | 0.00 | 0.02 | 0.00 | 40 | 1007.0 |
| 20260508175037 | 68 | 240 | 4.0 | 15.0 | 0.00 | 0.02 | 0.00 | 41 | 1007.0 |
| 20260508174549 | 68 | 231 | 7.0 | 16.0 | 0.00 | 0.02 | 0.00 | 41 | 1006.9 |
| 20260508174038 | 68 | 167 | 7.0 | 16.0 | 0.00 | 0.02 | 0.00 | 40 | 1007.0 |
| 20260508173534 | 68 | 303 | 3.0 | 11.0 | 0.00 | 0.02 | 0.00 | 41 | 1007.0 |
| 20260508173041 | 67 | 259 | 3.0 | 13.0 | 0.00 | 0.02 | 0.00 | 40 | 1007.0 |
| 20260508172533 | 68 | 233 | 5.0 | 13.0 | 0.00 | 0.02 | 0.00 | 42 | 1007.0 |
| 20260508172032 | 67 | 282 | 6.0 | 12.0 | 0.00 | 0.02 | 0.00 | 41 | 1007.0 |
| 20260508171532 | 67 | 262 | 1.0 | 13.0 | 0.00 | 0.02 | 0.00 | 44 | 1007.1 |
| 20260508171031 | 67 | 218 | 7.0 | 13.0 | 0.00 | 0.02 | 0.00 | 41 | 1007.2 |
| 20260508170530 | 66 | 180 | 3.0 | 6.0 | 0.00 | 0.02 | 0.00 | 42 | 1007.3 |
| 20260508170028 | 66 | 273 | 1.0 | 10.0 | 0.00 | 0.02 | 0.00 | 41 | 1007.4 |
| 20260508165526 | 66 | 240 | 3.0 | 11.0 | 0.00 | 0.02 | 0.00 | 42 | 1007.6 |
| 20260508165025 | 67 | 218 | 5.0 | 11.0 | 0.00 | 0.02 | 0.00 | 44 | 1007.6 |
| 20260508164526 | 66 | 217 | 5.0 | 11.0 | 0.00 | 0.02 | 0.00 | 43 | 1007.5 |
| 20260508164025 | 66 | 278 | 2.0 | 12.0 | 0.00 | 0.02 | 0.00 | 44 | 1007.8 |
| 20260508163525 | 66 | 338 | 4.0 | 17.0 | 0.00 | 0.02 | 0.00 | 43 | 1008.0 |
| 20260508163024 | 66 | 199 | 5.0 | 17.0 | 0.00 | 0.02 | 0.00 | 44 | 1008.0 |
| 20260508162526 | 66 | 248 | 2.0 | 9.0 | 0.00 | 0.02 | 0.00 | 44 | 1008.1 |
| 20260508162025 | 66 | 309 | 3.0 | 7.0 | 0.00 | 0.02 | 0.00 | 44 | 1008.1 |
| 20260508161523 | 66 | 323 | 1.0 | 7.0 | 0.00 | 0.02 | 0.00 | 44 | 1008.2 |
| 20260508161023 | 66 | 260 | 2.0 | 7.0 | 0.00 | 0.02 | 0.00 | 45 | 1008.2 |
| 20260508160521 | 65 | 240 | 3.0 | 7.0 | 0.00 | 0.02 | 0.00 | 43 | 1008.3 |
| 20260508160021 | 65 | 253 | 0.0 | 13.0 | 0.00 | 0.02 | 0.00 | 43 | 1008.3 |
| 20260508155521 | 64 | 249 | 6.0 | 13.0 | 0.00 | 0.02 | 0.00 | 43 | 1008.3 |
| 20260508155021 | 65 | 233 | 5.0 | 12.0 | 0.00 | 0.02 | 0.00 | 45 | 1008.3 |
| 20260508154520 | 65 | 227 | 2.0 | 7.0 | 0.00 | 0.02 | 0.00 | 46 | 1008.4 |
| 20260508154019 | 65 | 240 | 1.0 | 6.0 | 0.00 | 0.02 | 0.00 | 47 | 1008.4 |
| 20260508153520 | 64 | 169 | 1.0 | 11.0 | 0.00 | 0.02 | 0.00 | 45 | 1008.5 |
| 20260508153020 | 64 | 222 | 3.0 | 9.0 | 0.00 | 0.02 | 0.00 | 47 | 1008.5 |
| 20260508152522 | 64 | 184 | 4.0 | 9.0 | 0.00 | 0.02 | 0.00 | 44 | 1008.6 |
| 20260508152017 | 64 | 216 | 1.0 | 9.0 | 0.00 | 0.02 | 0.00 | 48 | 1008.6 |
| 20260508151526 | 63 | 168 | 3.0 | 9.0 | 0.00 | 0.02 | 0.00 | 45 | 1008.7 |
| 20260508151018 | 63 | 245 | 1.0 | 10.0 | 0.00 | 0.02 | 0.00 | 43 | 1008.7 |
| 20260508150515 | 63 | 237 | 3.0 | 10.0 | 0.00 | 0.02 | 0.00 | 42 | 1008.7 |
| 20260508150026 | 63 | 200 | 2.0 | 7.0 | 0.00 | 0.02 | 0.00 | 44 | 1008.8 |
| 20260508145514 | 62 | 264 | 0.0 | 8.0 | 0.00 | 0.02 | 0.00 | 43 | 1008.9 |
| 20260508145013 | 62 | 271 | 2.0 | 8.0 | 0.00 | 0.02 | 0.00 | 42 | 1008.9 |
| 20260508144513 | 62 | 101 | 1.0 | 7.0 | 0.00 | 0.02 | 0.00 | 42 | 1009.1 |
| 20260508144013 | 62 | 236 | 1.0 | 7.0 | 0.00 | 0.02 | 0.00 | 45 | 1009.1 |
| 20260508143514 | 62 | 217 | 1.0 | 8.0 | 0.00 | 0.02 | 0.00 | 46 | 1009.0 |
| 20260508143010 | 62 | 232 | 2.0 | 8.0 | 0.00 | 0.02 | 0.00 | 47 | 1009.0 |
| 20260508142510 | 62 | 307 | 0.0 | 4.0 | 0.00 | 0.02 | 0.00 | 46 | 1009.0 |
| 20260508142109 | 61 | 226 | 0.0 | 5.0 | 0.00 | 0.02 | 0.00 | 49 | 1009.0 |
| 20260508141509 | 60 | 291 | 1.0 | 4.0 | 0.00 | 0.02 | 0.00 | 50 | 1009.1 |
| 20260508141007 | 60 | 307 | 0.0 | 5.0 | 0.00 | 0.02 | 0.00 | 49 | 1009.1 |
| 20260508140507 | 60 | 201 | 1.0 | 5.0 | 0.00 | 0.02 | 0.00 | 53 | 1009.2 |
| 20260508140006 | 60 | 251 | 0.0 | 4.0 | 0.00 | 0.02 | 0.00 | 54 | 1009.2 |
| 20260508135506 | 59 | 284 | 1.0 | 4.0 | 0.00 | 0.02 | 0.00 | 55 | 1009.2 |
| 20260508135004 | 59 | 293 | 0.0 | 7.0 | 0.00 | 0.02 | 0.00 | 56 | 1009.2 |
| 20260508134504 | 58 | 272 | 2.0 | 7.0 | 0.00 | 0.02 | 0.00 | 56 | 1009.4 |
| 20260508134003 | 58 | 233 | 0.0 | 4.0 | 0.00 | 0.02 | 0.00 | 58 | 1009.3 |
| 20260508133505 | 57 | 229 | 0.0 | 5.0 | 0.00 | 0.02 | 0.00 | 61 | 1009.4 |
| 20260508133004 | 58 | 236 | 2.0 | 4.0 | 0.00 | 0.02 | 0.00 | 60 | 1009.4 |
| 20260508132503 | 57 | 271 | 0.0 | 3.0 | 0.00 | 0.02 | 0.00 | 64 | 1009.4 |
| 20260508132100 | 57 | 248 | 1.0 | 4.0 | 0.00 | 0.02 | 0.00 | 63 | 1009.4 |
| 20260508131558 | 56 | 217 | 0.0 | 4.0 | 0.00 | 0.02 | 0.00 | 65 | 1009.3 |
| 20260508131058 | 55 | 266 | 0.0 | 4.0 | 0.00 | 0.02 | 0.00 | 64 | 1009.4 |
| 20260508130555 | 55 | 256 | 0.0 | 2.0 | 0.00 | 0.02 | 0.00 | 65 | 1009.4 |
| 20260508130054 | 55 | 304 | 0.0 | 2.0 | 0.00 | 0.02 | 0.00 | 67 | 1009.4 |
| 20260508125553 | 54 | 230 | 0.0 | 2.0 | 0.00 | 0.02 | 0.00 | 68 | 1009.3 |
| 20260508125052 | 54 | 227 | 0.0 | 2.0 | 0.00 | 0.02 | 0.00 | 69 | 1009.4 |
| 20260508124558 | 53 | 235 | 0.0 | 5.0 | 0.00 | 0.02 | 0.00 | 69 | 1009.4 |
| 20260508124050 | 53 | 281 | 1.0 | 5.0 | 0.00 | 0.02 | 0.00 | 69 | 1009.4 |
| 20260508123548 | 53 | 257 | 0.0 | 2.0 | 0.00 | 0.02 | 0.00 | 73 | 1009.4 |
| 20260508123050 | 52 | 205 | 0.0 | 2.0 | 0.00 | 0.02 | 0.00 | 74 | 1009.3 |
| 20260508122544 | 52 | 314 | 0.0 | 2.0 | 0.00 | 0.02 | 0.00 | 75 | 1009.2 |
| 20260508122043 | 52 | 185 | 0.0 | 1.0 | 0.00 | 0.02 | 0.00 | 77 | 1008.9 |
| 20260508121542 | 51 | 226 | 0.0 | 2.0 | 0.00 | 0.02 | 0.00 | 79 | 1009.0 |
| 20260508121040 | 50 | 232 | 0.0 | 2.0 | 0.00 | 0.02 | 0.00 | 79 | 1009.1 |
| 20260508120538 | 50 | 229 | 0.0 | 2.0 | 0.00 | 0.02 | 0.00 | 80 | 1009.0 |
| 20260508120037 | 49 | 233 | 0.0 | 2.0 | 0.00 | 0.02 | 0.00 | 82 | 1008.8 |
| 20260508115536 | 48 | 231 | 0.0 | 2.0 | 0.00 | 0.02 | 0.00 | 84 | 1008.9 |
| 20260508115033 | 47 | 225 | 0.0 | 1.0 | 0.00 | 0.02 | 0.00 | 87 | 1008.8 |
| 20260508114536 | 47 | 273 | 0.0 | 1.0 | 0.00 | 0.02 | 0.00 | 89 | 1008.7 |
| 20260508114034 | 46 | 278 | 0.0 | 0.0 | 0.00 | 0.02 | 0.00 | 90 | 1008.6 |
| 20260508113533 | 45 | 278 | 0.0 | 1.0 | 0.00 | 0.02 | 0.00 | 90 | 1008.7 |
| 20260508113048 | 44 | 278 | 0.0 | 1.0 | 0.00 | 0.02 | 0.00 | 91 | 1008.7 |
| 20260508112532 | 43 | 278 | 0.0 | 0.0 | 0.00 | 0.02 | 0.00 | 91 | 1008.7 |
| 20260508112032 | 43 | 278 | 0.0 | 0.0 | 0.00 | 0.02 | 0.00 | 91 | 1008.6 |
| 20260508111532 | 42 | 278 | 0.0 | 0.0 | 0.00 | 0.02 | 0.00 | 91 | 1008.5 |
| 20260508111032 | 41 | 278 | 0.0 | 0.0 | 0.00 | 0.02 | 0.00 | 91 | 1008.3 |
| 20260508110532 | 41 | 278 | 0.0 | 0.0 | 0.00 | 0.02 | 0.00 | 91 | 1008.2 |
| 20260508110030 | 41 | 278 | 0.0 | 0.0 | 0.00 | 0.02 | 0.00 | 90 | 1008.2 |
| 20260508105529 | 40 | 278 | 0.0 | 0.0 | 0.00 | 0.02 | 0.00 | 91 | 1008.0 |
| 20260508105029 | 40 | 278 | 0.0 | 0.0 | 0.00 | 0.02 | 0.00 | 90 | 1008.0 |
| 20260508104528 | 40 | 278 | 0.0 | 0.0 | 0.00 | 0.02 | 0.00 | 90 | 1007.9 |
| 20260508104027 | 40 | 278 | 0.0 | 0.0 | 0.00 | 0.02 | 0.00 | 89 | 1007.7 |
| 20260508103527 | 40 | 278 | 0.0 | 0.0 | 0.00 | 0.02 | 0.00 | 89 | 1007.7 |
| 20260508103033 | 40 | 278 | 0.0 | 0.0 | 0.00 | 0.02 | 0.00 | 89 | 1007.5 |
| 20260508102530 | 40 | 278 | 0.0 | 0.0 | 0.00 | 0.02 | 0.00 | 89 | 1007.4 |
| 20260508102025 | 40 | 278 | 0.0 | 0.0 | 0.00 | 0.02 | 0.00 | 88 | 1007.3 |
| 20260508101529 | 40 | 278 | 0.0 | 0.0 | 0.00 | 0.02 | 0.00 | 88 | 1007.3 |
| 20260508101023 | 40 | 278 | 0.0 | 0.0 | 0.00 | 0.02 | 0.00 | 88 | 1007.3 |
| 20260508100521 | 41 | 278 | 0.0 | 0.0 | 0.00 | 0.02 | 0.00 | 88 | 1007.2 |
| 20260508100020 | 41 | 278 | 0.0 | 0.0 | 0.00 | 0.02 | 0.00 | 87 | 1007.2 |
| 20260508095519 | 41 | 278 | 0.0 | 0.0 | 0.00 | 0.02 | 0.00 | 87 | 1007.1 |
| 20260508095018 | 42 | 278 | 0.0 | 0.0 | 0.00 | 0.02 | 0.00 | 87 | 1007.0 |
| 20260508094517 | 42 | 278 | 0.0 | 0.0 | 0.00 | 0.02 | 0.00 | 87 | 1006.9 |
| 20260508094017 | 43 | 278 | 0.0 | 0.0 | 0.00 | 0.02 | 0.00 | 87 | 1007.0 |
| 20260508093517 | 43 | 278 | 0.0 | 0.0 | 0.00 | 0.02 | 0.00 | 88 | 1007.0 |
| 20260508093018 | 43 | 278 | 0.0 | 1.0 | 0.00 | 0.02 | 0.00 | 88 | 1007.0 |
| 20260508092517 | 43 | 288 | 0.0 | 1.0 | 0.00 | 0.02 | 0.00 | 89 | 1007.1 |
| 20260508092015 | 43 | 288 | 0.0 | 1.0 | 0.00 | 0.02 | 0.00 | 91 | 1007.1 |
| 20260508091525 | 43 | 288 | 0.0 | 1.0 | 0.00 | 0.02 | 0.00 | 91 | 1007.0 |
| 20260508091015 | 43 | 288 | 0.0 | 2.0 | 0.00 | 0.02 | 0.00 | 91 | 1007.0 |
| 20260508090514 | 43 | 288 | 0.0 | 2.0 | 0.00 | 0.02 | 0.00 | 92 | 1006.9 |
| 20260508090023 | 42 | 250 | 0.0 | 0.0 | 0.00 | 0.03 | 0.00 | 90 | 1006.9 |
| 20260508085513 | 42 | 250 | 0.0 | 0.0 | 0.00 | 0.03 | 0.00 | 90 | 1006.8 |
| 20260508085012 | 42 | 250 | 0.0 | 0.0 | 0.00 | 0.03 | 0.00 | 90 | 1006.7 |
| 20260508084512 | 42 | 250 | 0.0 | 0.0 | 0.00 | 0.03 | 0.00 | 90 | 1006.7 |
| 20260508084012 | 43 | 250 | 0.0 | 0.0 | 0.00 | 0.03 | 0.00 | 90 | 1006.6 |
| 20260508083509 | 43 | 250 | 0.0 | 0.0 | 0.00 | 0.03 | 0.00 | 90 | 1006.5 |
| 20260508083010 | 43 | 250 | 0.0 | 0.0 | 0.00 | 0.03 | 0.00 | 90 | 1006.5 |
| 20260508082508 | 43 | 250 | 0.0 | 1.0 | 0.00 | 0.03 | 0.00 | 89 | 1006.3 |
| 20260508082008 | 44 | 250 | 0.0 | 1.0 | 0.00 | 0.03 | 0.00 | 89 | 1006.3 |
| 20260508081509 | 44 | 279 | 0.0 | 0.0 | 0.00 | 0.03 | 0.00 | 88 | 1006.3 |
| 20260508081006 | 44 | 279 | 0.0 | 0.0 | 0.00 | 0.03 | 0.00 | 88 | 1006.3 |
| 20260508080507 | 45 | 279 | 0.0 | 0.0 | 0.00 | 0.03 | 0.00 | 88 | 1006.4 |
| 20260508080005 | 45 | 279 | 0.0 | 0.0 | 0.00 | 0.03 | 0.00 | 88 | 1006.2 |
| 20260508075505 | 46 | 279 | 0.0 | 0.0 | 0.00 | 0.03 | 0.00 | 88 | 1006.4 |
| 20260508075004 | 46 | 279 | 0.0 | 0.0 | 0.00 | 0.03 | 0.00 | 88 | 1006.2 |
| 20260508074504 | 46 | 279 | 0.0 | 0.0 | 0.00 | 0.03 | 0.00 | 87 | 1006.3 |
| 20260508074004 | 46 | 279 | 0.0 | 1.0 | 0.00 | 0.03 | 0.00 | 87 | 1006.3 |
| 20260508073502 | 47 | 279 | 0.0 | 1.0 | 0.00 | 0.03 | 0.00 | 87 | 1006.2 |
| 20260508073004 | 47 | 279 | 0.0 | 2.0 | 0.00 | 0.03 | 0.00 | 88 | 1006.1 |
| 20260508072502 | 47 | 288 | 0.0 | 2.0 | 0.00 | 0.03 | 0.00 | 89 | 1006.1 |
| 20260508072100 | 47 | 287 | 0.0 | 1.0 | 0.00 | 0.03 | 0.00 | 90 | 1006.1 |
| 20260508071600 | 47 | 289 | 0.0 | 2.0 | 0.00 | 0.03 | 0.00 | 91 | 1006.0 |
| 20260508071059 | 47 | 295 | 0.0 | 2.0 | 0.00 | 0.03 | 0.00 | 92 | 1006.0 |
| 20260508070559 | 46 | 291 | 0.0 | 2.0 | 0.00 | 0.03 | 0.00 | 92 | 1005.9 |
| 20260508070058 | 46 | 289 | 0.0 | 1.0 | 0.00 | 0.03 | 0.00 | 92 | 1005.8 |
| 20260508065557 | 46 | 289 | 0.0 | 0.0 | 0.00 | 0.03 | 0.00 | 92 | 1005.8 |
| 20260508065056 | 46 | 290 | 0.0 | 0.0 | 0.00 | 0.03 | 0.00 | 92 | 1005.7 |
| 20260508064557 | 47 | 290 | 0.0 | 0.0 | 0.00 | 0.03 | 0.00 | 92 | 1005.6 |
| 20260508064056 | 47 | 290 | 0.0 | 1.0 | 0.00 | 0.03 | 0.00 | 92 | 1005.5 |
| 20260508063556 | 47 | 290 | 0.0 | 1.0 | 0.00 | 0.03 | 0.00 | 92 | 1005.5 |
| 20260508063054 | 47 | 292 | 0.0 | 3.0 | 0.00 | 0.03 | 0.00 | 93 | 1005.3 |
| 20260508062555 | 47 | 293 | 0.0 | 3.0 | 0.00 | 0.03 | 0.00 | 93 | 1005.3 |
| 20260508062055 | 46 | 301 | 0.0 | 2.0 | 0.00 | 0.03 | 0.00 | 93 | 1005.2 |
| 20260508061553 | 46 | 299 | 0.0 | 2.0 | 0.00 | 0.03 | 0.00 | 93 | 1005.2 |
| 20260508061053 | 46 | 296 | 0.0 | 1.0 | 0.00 | 0.03 | 0.00 | 93 | 1005.1 |
| 20260508060552 | 45 | 276 | 0.0 | 1.0 | 0.00 | 0.03 | 0.00 | 93 | 1005.1 |
| 20260508060053 | 45 | 275 | 0.0 | 0.0 | 0.00 | 0.03 | 0.00 | 92 | 1005.1 |
| 20260508055551 | 45 | 276 | 0.0 | 0.0 | 0.00 | 0.05 | 0.00 | 92 | 1005.2 |
| 20260508055052 | 45 | 276 | 0.0 | 0.0 | 0.00 | 0.05 | 0.00 | 92 | 1005.2 |
| 20260508054551 | 45 | 275 | 0.0 | 1.0 | 0.00 | 0.05 | 0.00 | 92 | 1005.3 |
| 20260508054052 | 44 | 275 | 0.0 | 1.0 | 0.00 | 0.05 | 0.00 | 92 | 1005.2 |
| 20260508053550 | 44 | 221 | 0.0 | 0.0 | 0.00 | 0.05 | 0.00 | 91 | 1005.2 |
| 20260508053049 | 44 | 221 | 0.0 | 0.0 | 0.00 | 0.05 | 0.00 | 91 | 1005.2 |
| 20260508052552 | 44 | 221 | 0.0 | 0.0 | 0.00 | 0.05 | 0.00 | 91 | 1005.1 |
| 20260508052049 | 44 | 221 | 0.0 | 0.0 | 0.00 | 0.05 | 0.00 | 90 | 1005.1 |
| 20260508051547 | 45 | 221 | 0.0 | 0.0 | 0.00 | 0.05 | 0.00 | 90 | 1005.1 |
| 20260508051049 | 45 | 221 | 0.0 | 0.0 | 0.00 | 0.05 | 0.00 | 91 | 1005.0 |
| 20260508050545 | 45 | 221 | 0.0 | 0.0 | 0.00 | 0.05 | 0.00 | 90 | 1005.1 |
| 20260508050046 | 46 | 221 | 0.0 | 0.0 | 0.00 | 0.05 | 0.00 | 91 | 1005.1 |
| 20260508045544 | 46 | 221 | 0.0 | 0.0 | 0.00 | 0.07 | 0.00 | 91 | 1005.1 |
| 20260508045043 | 46 | 220 | 0.0 | 0.0 | 0.00 | 0.07 | 0.00 | 91 | 1005.1 |
| 20260508044542 | 46 | 220 | 0.0 | 0.0 | 0.00 | 0.07 | 0.00 | 91 | 1005.0 |
| 20260508044041 | 46 | 218 | 0.0 | 1.0 | 0.00 | 0.07 | 0.00 | 90 | 1005.0 |
| 20260508043540 | 46 | 219 | 0.0 | 1.0 | 0.00 | 0.07 | 0.00 | 90 | 1004.8 |
| 20260508043044 | 46 | 219 | 0.0 | 0.0 | 0.00 | 0.07 | 0.00 | 90 | 1004.8 |
| 20260508042539 | 46 | 219 | 0.0 | 1.0 | 0.00 | 0.07 | 0.00 | 90 | 1004.8 |
| 20260508042038 | 46 | 219 | 0.0 | 1.0 | 0.00 | 0.07 | 0.00 | 90 | 1004.7 |
| 20260508041537 | 47 | 219 | 0.0 | 1.0 | 0.00 | 0.07 | 0.00 | 90 | 1004.8 |
| 20260508041037 | 47 | 219 | 0.0 | 1.0 | 0.00 | 0.07 | 0.00 | 90 | 1004.7 |
| 20260508040536 | 47 | 229 | 0.0 | 0.0 | 0.00 | 0.07 | 0.00 | 89 | 1004.7 |
| 20260508040035 | 47 | 228 | 0.0 | 1.0 | 0.00 | 0.07 | 0.00 | 90 | 1004.5 |
| 20260508035536 | 47 | 228 | 0.0 | 1.0 | 0.00 | 0.07 | 0.07 | 90 | 1004.4 |
| 20260508035035 | 47 | 228 | 0.0 | 1.0 | 0.00 | 0.07 | 0.07 | 89 | 1004.4 |
| 20260508034534 | 47 | 229 | 0.0 | 1.0 | 0.00 | 0.07 | 0.07 | 89 | 1004.4 |
| 20260508034033 | 47 | 229 | 0.0 | 0.0 | 0.00 | 0.07 | 0.07 | 89 | 1004.4 |
| 20260508033533 | 47 | 229 | 0.0 | 0.0 | 0.00 | 0.07 | 0.07 | 89 | 1004.4 |
| 20260508033034 | 48 | 240 | 0.0 | 0.0 | 0.00 | 0.07 | 0.07 | 88 | 1004.4 |
| 20260508032533 | 48 | 240 | 0.0 | 0.0 | 0.00 | 0.07 | 0.07 | 88 | 1004.4 |
| 20260508032032 | 48 | 240 | 0.0 | 0.0 | 0.00 | 0.07 | 0.07 | 88 | 1004.4 |
| 20260508031530 | 48 | 240 | 0.0 | 1.0 | 0.00 | 0.07 | 0.07 | 88 | 1004.3 |
| 20260508031031 | 48 | 240 | 0.0 | 1.0 | 0.00 | 0.07 | 0.07 | 88 | 1004.3 |
| 20260508030529 | 49 | 202 | 0.0 | 0.0 | 0.00 | 0.07 | 0.07 | 88 | 1004.3 |
| 20260508030029 | 49 | 202 | 0.0 | 0.0 | 0.00 | 0.07 | 0.07 | 87 | 1004.2 |
| 20260508025528 | 49 | 202 | 0.0 | 0.0 | 0.00 | 0.07 | 0.07 | 87 | 1004.3 |
| 20260508025028 | 49 | 202 | 0.0 | 1.0 | 0.00 | 0.07 | 0.07 | 87 | 1004.2 |
| 20260508024535 | 49 | 202 | 0.0 | 1.0 | 0.00 | 0.07 | 0.07 | 86 | 1004.1 |
| 20260508024027 | 49 | 228 | 0.0 | 0.0 | 0.00 | 0.07 | 0.07 | 86 | 1004.2 |
| 20260508023527 | 50 | 228 | 0.0 | 0.0 | 0.00 | 0.07 | 0.07 | 86 | 1004.1 |
| 20260508023028 | 50 | 228 | 0.0 | 0.0 | 0.00 | 0.07 | 0.07 | 86 | 1004.1 |
| 20260508022527 | 50 | 228 | 0.0 | 1.0 | 0.00 | 0.07 | 0.07 | 86 | 1004.2 |
| 20260508022028 | 50 | 228 | 0.0 | 1.0 | 0.00 | 0.07 | 0.07 | 86 | 1004.2 |
| 20260508021532 | 50 | 229 | 0.0 | 1.0 | 0.00 | 0.07 | 0.07 | 85 | 1004.3 |
| 20260508021026 | 50 | 228 | 0.0 | 1.0 | 0.00 | 0.07 | 0.07 | 85 | 1004.2 |
| 20260508020524 | 50 | 195 | 0.0 | 0.0 | 0.00 | 0.07 | 0.07 | 85 | 1004.2 |
| 20260508020023 | 50 | 195 | 0.0 | 0.0 | 0.00 | 0.07 | 0.07 | 85 | 1004.1 |
| 20260508015522 | 50 | 195 | 0.0 | 0.0 | 0.00 | 0.07 | 0.07 | 84 | 1004.1 |
| 20260508015023 | 50 | 195 | 0.0 | 0.0 | 0.00 | 0.07 | 0.07 | 84 | 1004.2 |
| 20260508014521 | 51 | 195 | 0.0 | 0.0 | 0.00 | 0.07 | 0.07 | 83 | 1004.1 |
| 20260508014021 | 51 | 195 | 0.0 | 0.0 | 0.00 | 0.07 | 0.07 | 83 | 1004.2 |
| 20260508013521 | 51 | 195 | 0.0 | 0.0 | 0.00 | 0.07 | 0.07 | 82 | 1004.0 |
| 20260508013033 | 51 | 195 | 0.0 | 0.0 | 0.00 | 0.07 | 0.07 | 82 | 1003.9 |
| 20260508012520 | 51 | 193 | 0.0 | 0.0 | 0.00 | 0.07 | 0.07 | 82 | 1003.8 |
| 20260508012020 | 51 | 193 | 0.0 | 1.0 | 0.00 | 0.07 | 0.07 | 82 | 1003.8 |
| 20260508011520 | 52 | 228 | 0.0 | 1.0 | 0.00 | 0.07 | 0.07 | 81 | 1003.8 |
| 20260508011018 | 52 | 232 | 0.0 | 1.0 | 0.00 | 0.07 | 0.07 | 81 | 1003.8 |
| 20260508010516 | 52 | 232 | 0.0 | 1.0 | 0.00 | 0.07 | 0.07 | 81 | 1003.8 |
| 20260508010017 | 52 | 184 | 0.0 | 1.0 | 0.00 | 0.07 | 0.07 | 81 | 1003.6 |
| 20260508005518 | 52 | 236 | 0.0 | 1.0 | 0.00 | 0.07 | 0.07 | 81 | 1003.6 |
| 20260508005019 | 52 | 234 | 0.0 | 1.0 | 0.00 | 0.07 | 0.07 | 81 | 1003.4 |
| 20260508004529 | 53 | 220 | 0.0 | 2.0 | 0.00 | 0.07 | 0.07 | 80 | 1003.3 |
| 20260508004014 | 53 | 230 | 0.0 | 1.0 | 0.00 | 0.07 | 0.07 | 80 | 1003.2 |
| 20260508003512 | 53 | 232 | 0.0 | 3.0 | 0.00 | 0.07 | 0.07 | 79 | 1003.2 |
| 20260508003012 | 53 | 239 | 0.0 | 3.0 | 0.00 | 0.07 | 0.07 | 79 | 1003.2 |
| 20260508002511 | 54 | 235 | 0.0 | 3.0 | 0.00 | 0.07 | 0.07 | 79 | 1003.2 |
| 20260508002010 | 54 | 233 | 0.0 | 3.0 | 0.00 | 0.07 | 0.07 | 78 | 1003.2 |
| 20260508001516 | 54 | 229 | 1.0 | 4.0 | 0.00 | 0.07 | 0.07 | 78 | 1003.2 |
| 20260508001011 | 54 | 233 | 1.0 | 5.0 | 0.00 | 0.07 | 0.07 | 78 | 1003.1 |
| 20260508000513 | 55 | 243 | 1.0 | 5.0 | 0.00 | 0.07 | 0.07 | 77 | 1003.1 |
| 20260508000009 | 55 | 233 | 1.0 | 3.0 | 0.00 | 0.07 | 0.07 | 77 | 1003.0 |
| 20260507235510 | 55 | 237 | 1.0 | 3.0 | 0.00 | 0.07 | 0.07 | 76 | 1003.0 |
| 20260507235011 | 56 | 243 | 1.0 | 3.0 | 0.00 | 0.07 | 0.07 | 75 | 1002.9 |
| 20260507234509 | 56 | 247 | 1.0 | 6.0 | 0.00 | 0.07 | 0.07 | 75 | 1002.8 |
| 20260507234010 | 56 | 238 | 2.0 | 6.0 | 0.00 | 0.07 | 0.07 | 75 | 1002.7 |
| 20260507233509 | 57 | 226 | 1.0 | 5.0 | 0.00 | 0.07 | 0.07 | 74 | 1002.7 |
| 20260507233010 | 57 | 221 | 1.0 | 5.0 | 0.00 | 0.07 | 0.07 | 74 | 1002.6 |
| 20260507232510 | 57 | 214 | 1.0 | 5.0 | 0.00 | 0.07 | 0.07 | 74 | 1002.6 |
| 20260507232012 | 57 | 226 | 1.0 | 5.0 | 0.00 | 0.07 | 0.07 | 74 | 1002.6 |
| 20260507231509 | 57 | 240 | 2.0 | 5.0 | 0.00 | 0.07 | 0.07 | 73 | 1002.4 |
| 20260507231012 | 58 | 231 | 2.0 | 4.0 | 0.00 | 0.07 | 0.07 | 73 | 1002.4 |
| 20260507230510 | 58 | 178 | 1.0 | 5.0 | 0.00 | 0.07 | 0.07 | 73 | 1002.4 |
| 20260507230006 | 58 | 160 | 1.0 | 5.0 | 0.00 | 0.07 | 0.07 | 73 | 1002.3 |
| 20260507225507 | 58 | 199 | 1.0 | 7.0 | 0.00 | 0.07 | 0.07 | 73 | 1002.3 |
| 20260507225009 | 58 | 227 | 3.0 | 7.0 | 0.00 | 0.07 | 0.07 | 73 | 1002.3 |
| 20260507224506 | 58 | 233 | 3.0 | 7.0 | 0.00 | 0.07 | 0.07 | 73 | 1002.3 |
| 20260507224006 | 58 | 210 | 3.0 | 7.0 | 0.00 | 0.07 | 0.07 | 73 | 1002.2 |
| 20260507223506 | 58 | 227 | 3.0 | 7.0 | 0.00 | 0.07 | 0.07 | 73 | 1002.3 |
| 20260507223007 | 59 | 217 | 4.0 | 9.0 | 0.00 | 0.07 | 0.07 | 72 | 1002.2 |
| 20260507222505 | 59 | 191 | 2.0 | 8.0 | 0.00 | 0.07 | 0.07 | 72 | 1002.3 |
| 20260507222006 | 59 | 176 | 1.0 | 5.0 | 0.00 | 0.07 | 0.07 | 74 | 1002.5 |
| 20260507221512 | 58 | 233 | 0.0 | 5.0 | 0.00 | 0.07 | 0.07 | 74 | 1002.4 |
| 20260507221010 | 58 | 194 | 1.0 | 5.0 | 0.00 | 0.07 | 0.07 | 74 | 1002.3 |
| 20260507220507 | 58 | 213 | 0.0 | 6.0 | 0.00 | 0.07 | 0.07 | 74 | 1002.3 |